Location: Hungerford
(51.4167°N, 1.5167°W)
Time: 13:50:22
(UTC+00:00)

Meteor 1-22 Rocket - Pass Details

Date: 18 September 2020
Orbit: 786 x 941 km, 81.2° (Epoch: 25 October)

Event Time Altitude Azimuth Distance (km) Brightness Sun altitude
Exits shadow 20:43:04 46° 151° (SSE) 1,201 4.6 -22.8°
Maximum altitude 20:44:37 62° 96° (E) 1,023 4.3 -23.0°
Drops below altitude 10° 20:50:35 10° 18° (NNE) 2,645 7.0 -23.8°
Sets 20:53:08 0° 15° (NNE) 3,605 7.8 -24.1°
